This is the latest recevied weather packets stored in our database for station/object W1REE. If no packets are shown the sender has not sent any weather packets the latest 10 day(s).
| Time | Temp. | Humidity | Pressure | Rain* | Wind** | Luminosity | Snow |
|---|---|---|---|---|---|---|---|
| 1777865930 | 13.33° C | 30% | 1015.7 hPa | 0 mm | - | 0 W/m² | - |
| 1777865628 | 13.89° C | 30% | 1015.7 hPa | 0 mm | - | 0 W/m² | - |
| 1777865325 | 14.44° C | 29% | 1016 hPa | 0 mm | - | 0 W/m² | - |
| 1777865022 | 15° C | 28% | 1015.8 hPa | 0 mm | - | 0 W/m² | - |
| 1777864718 | 15.56° C | 25% | 1015.8 hPa | 0 mm | - | 0 W/m² | - |
| 1777864416 | 15.56° C | 24% | 1015.8 hPa | 0 mm | - | 0 W/m² | - |
| 1777864112 | 15.56° C | 24% | 1015.6 hPa | 0 mm | - | 0 W/m² | - |
| 1777863810 | 15° C | 26% | 1015.6 hPa | 0 mm | - | 0 W/m² | - |
| 1777863506 | 14.44° C | 25% | 1015.6 hPa | 0 mm | - | 0 W/m² | - |
| 1777863203 | 15° C | 27% | 1015.3 hPa | 0 mm | - | 0 W/m² | - |
| 1777862899 | 15° C | 26% | 1015.2 hPa | 0 mm | - | 0 W/m² | - |
| 1777862596 | 15.56° C | 26% | 1015.2 hPa | 0 mm | - | 0 W/m² | - |
| 1777862293 | 15.56° C | 25% | 1015.1 hPa | 0 mm | - | 0 W/m² | - |
| 1777861989 | 15.56° C | 25% | 1014.7 hPa | 0 mm | - | 0 W/m² | - |
| 1777861685 | 15.56° C | 26% | 1014.8 hPa | 0 mm | - | 0 W/m² | - |
| 1777861382 | 15.56° C | 26% | 1015 hPa | 0 mm | - | 0 W/m² | - |
| 1777861078 | 16.11° C | 25% | 1014.8 hPa | 0 mm | - | 0 W/m² | - |
| 1777860776 | 16.67° C | 23% | 1014.7 hPa | 0 mm | - | 0 W/m² | - |
| 1777860473 | 17.22° C | 21% | 1014.6 hPa | 0 mm | - | 0 W/m² | - |
| 1777860169 | 17.78° C | 20% | 1014.6 hPa | 0 mm | - | 1 W/m² | - |
| 1777859865 | 17.78° C | 21% | 1014.5 hPa | 0 mm | - | 2 W/m² | - |
| 1777859562 | 17.78° C | 22% | 1014.5 hPa | 0 mm | - | 3 W/m² | - |
| 1777859257 | 17.78° C | 21% | 1014.7 hPa | 0 mm | - | 4 W/m² | - |
| 1777858954 | 18.33° C | 20% | 1014.5 hPa | 0 mm | - | 6 W/m² | - |
| 1777858652 | 18.33° C | 19% | 1014.6 hPa | 0 mm | - | 9 W/m² | - |
* Rain latest hour (hover to see other rain measurements)
** Current wind speed in m/s (hover to see current wind gust speed)